| time (UTC) | temp C | wind direction | speed KPH | gust KPH | rain 1hr cm | rain 24hr cm | rain mn cm | humidity % | barometer mb |
| 20260503071457 | 22 | 179 | 1.6 | 9.7 | 0.00 | 0.08 | 0.00 | 79 | 1019.7 |
| 20260503054408 | 24 | 239 | 1.6 | 6.4 | 0.00 | 0.15 | 0.00 | 71 | 1019.4 |
| 20260503052856 | 24 | 321 | 1.6 | 9.7 | 0.00 | 0.15 | 0.00 | 69 | 1019.3 |
| 20260503051352 | 25 | 288 | 1.6 | 9.7 | 0.00 | 0.20 | 0.00 | 69 | 1019.3 |
| 20260503045851 | 24 | 103 | 3.2 | 14.5 | 0.00 | 0.23 | 0.00 | 69 | 1019.4 |
| 20260503045049 | 25 | 59 | 1.6 | 9.7 | 0.00 | 0.23 | 0.00 | 69 | 1019.3 |
| 20260503042844 | 25 | 22 | 4.8 | 16.1 | 0.00 | 0.28 | 0.00 | 66 | 1019.3 |
| 20260503041346 | 26 | 86 | 4.8 | 16.1 | 0.00 | 0.30 | 0.00 | 64 | 1019.4 |
| 20260503035828 | 26 | 313 | 4.8 | 14.5 | 0.00 | 0.30 | 0.00 | 62 | 1019.4 |
| 20260503034334 | 26 | 336 | 4.8 | 16.1 | 0.00 | 0.33 | 0.00 | 66 | 1019.4 |
| 20260503032802 | 25 | 250 | 1.6 | 14.5 | 0.00 | 0.33 | 0.00 | 72 | 1019.6 |
| 20260503031250 | 23 | 103 | 4.8 | 17.7 | 0.00 | 0.33 | 0.00 | 73 | 1019.8 |
| 20260503025751 | 25 | 131 | 6.4 | 22.5 | 0.00 | 0.33 | 0.00 | 66 | 1019.9 |
| 20260503024946 | 23 | 340 | 4.8 | 19.3 | 0.00 | 0.33 | 0.00 | 68 | 1020.1 |
| 20260503022713 | 23 | 110 | 6.4 | 19.3 | 0.00 | 0.33 | 0.00 | 69 | 1020.2 |
| 20260503021909 | 23 | 104 | 3.2 | 11.3 | 0.00 | 0.33 | 0.00 | 79 | 1020.5 |
| 20260503015709 | 23 | 42 | 4.8 | 14.5 | 0.00 | 0.33 | 0.00 | 74 | 1021.0 |
| 20260503014145 | 25 | 219 | 6.4 | 22.5 | 0.00 | 0.33 | 0.00 | 69 | 1020.8 |
| 20260503012639 | 25 | 167 | 4.8 | 16.1 | 0.00 | 0.33 | 0.00 | 68 | 1020.9 |
| 20260503011141 | 25 | 328 | 3.2 | 12.9 | 0.00 | 0.33 | 0.00 | 73 | 1021.3 |
| 20260503004107 | 25 | 19 | 4.8 | 16.1 | 0.00 | 0.33 | 0.00 | 66 | 1021.6 |
| 20260503003308 | 25 | 271 | 1.6 | 12.9 | 0.00 | 0.33 | 0.00 | 70 | 1021.7 |
| 20260503001100 | 24 | 166 | 6.4 | 16.1 | 0.00 | 0.33 | 0.00 | 71 | 1021.9 |
| 20260502235551 | 25 | 155 | 4.8 | 14.5 | 0.00 | 0.33 | 0.00 | 70 | 1022.0 |
| 20260502234052 | 24 | 299 | 1.6 | 4.8 | 0.00 | 0.33 | 0.00 | 74 | 1022.0 |
| 20260502233301 | 22 | 279 | 3.2 | 9.7 | 0.00 | 0.33 | 0.00 | 75 | 1022.0 |
| 20260502231104 | 22 | 220 | 3.2 | 6.4 | 0.00 | 0.33 | 0.00 | 76 | 1022.2 |
| 20260502225559 | 22 | 143 | 0.0 | 0.0 | 0.00 | 0.33 | 0.00 | 79 | 1022.0 |
| 20260502224029 | 21 | 68 | 0.0 | 0.0 | 0.00 | 0.33 | 0.00 | 80 | 1021.8 |
| 20260502222456 | 20 | 32 | 0.0 | 0.0 | 0.00 | 0.36 | 0.00 | 83 | 1021.8 |
| 20260502220959 | 19 | 274 | 0.0 | 4.8 | 0.00 | 0.38 | 0.00 | 84 | 1021.5 |
| 20260502215458 | 18 | 268 | 1.6 | 4.8 | 0.00 | 0.43 | 0.00 | 87 | 1021.3 |
| 20260502213937 | 17 | 267 | 0.0 | 3.2 | 0.00 | 0.48 | 0.00 | 91 | 1021.2 |
| 20260502212438 | 16 | 57 | 0.0 | 3.2 | 0.00 | 0.56 | 0.00 | 92 | 1021.1 |
| 20260502210939 | 16 | 57 | 0.0 | 0.0 | 0.00 | 0.61 | 0.00 | 92 | 1021.3 |
| 20260502205418 | 16 | 57 | 0.0 | 0.0 | 0.00 | 0.74 | 0.00 | 90 | 1021.1 |
| 20260502203909 | 16 | 57 | 0.0 | 1.6 | 0.00 | 0.89 | 0.00 | 90 | 1020.9 |
| 20260502202352 | 16 | 57 | 0.0 | 1.6 | 0.00 | 1.02 | 0.00 | 89 | 1020.9 |
| 20260502200848 | 16 | 57 | 0.0 | 3.2 | 0.00 | 1.12 | 0.00 | 89 | 1020.8 |
| 20260502193851 | 16 | 57 | 0.0 | 4.8 | 0.00 | 1.37 | 0.00 | 89 | 1020.5 |
| 20260502192340 | 16 | 355 | 1.6 | 4.8 | 0.00 | 1.50 | 0.00 | 89 | 1020.7 |
| 20260502190844 | 16 | 162 | 0.0 | 1.6 | 0.00 | 1.63 | 0.00 | 88 | 1020.4 |
| 20260502185317 | 16 | 162 | 0.0 | 1.6 | 0.00 | 1.78 | 0.00 | 87 | 1020.4 |
| 20260502183818 | 16 | 162 | 0.0 | 3.2 | 0.00 | 1.91 | 0.00 | 87 | 1020.5 |
| 20260502182954 | 16 | 162 | 0.0 | 3.2 | 0.00 | 1.98 | 0.00 | 87 | 1020.4 |
| 20260502180750 | 16 | 162 | 0.0 | 3.2 | 0.00 | 2.01 | 0.00 | 87 | 1020.3 |
| 20260502163726 | 18 | 181 | 1.6 | 6.4 | 0.00 | 2.16 | 0.00 | 81 | 1020.7 |
| 20260502162213 | 18 | 61 | 3.2 | 9.7 | 0.00 | 2.21 | 0.00 | 82 | 1020.8 |
| 20260502160717 | 18 | 152 | 1.6 | 9.7 | 0.00 | 2.26 | 0.00 | 82 | 1020.9 |
| 20260502152140 | 18 | 169 | 1.6 | 9.7 | 0.00 | 2.31 | 0.00 | 83 | 1021.2 |
| 20260502151336 | 19 | 276 | 3.2 | 9.7 | 0.00 | 2.39 | 0.00 | 82 | 1021.5 |
| 20260502130555 | 20 | 110 | 3.2 | 14.5 | 0.00 | 3.15 | 2.87 | 83 | 1021.6 |
| 20260502123558 | 20 | 18 | 3.2 | 19.3 | 0.00 | 3.15 | 2.87 | 85 | 1021.6 |
| 20260502122050 | 19 | 92 | 3.2 | 8.0 | 0.00 | 3.15 | 2.87 | 86 | 1021.9 |
| 20260502120538 | 19 | 305 | 3.2 | 14.5 | 0.00 | 3.15 | 2.87 | 87 | 1022.1 |
| 20260502115014 | 19 | 237 | 3.2 | 19.3 | 0.00 | 3.20 | 2.87 | 88 | 1022.0 |
| 20260502113510 | 19 | 128 | 4.8 | 14.5 | 0.00 | 3.30 | 2.87 | 89 | 1022.0 |
| 20260502112014 | 19 | 269 | 3.2 | 14.5 | 0.00 | 3.43 | 2.87 | 89 | 1022.1 |
| 20260502111219 | 19 | 243 | 3.2 | 25.7 | 0.00 | 3.43 | 2.87 | 90 | 1022.1 |
| 20260502105003 | 19 | 271 | 3.2 | 16.1 | 0.00 | 3.43 | 2.87 | 90 | 1022.0 |
| 20260502103503 | 20 | 270 | 3.2 | 8.0 | 0.00 | 3.43 | 2.87 | 90 | 1021.9 |
| 20260502102653 | 20 | 69 | 1.6 | 6.4 | 0.00 | 3.45 | 2.87 | 90 | 1022.0 |
| 20260502100436 | 20 | 225 | 1.6 | 6.4 | 0.00 | 3.53 | 2.87 | 90 | 1021.9 |
| 20260502090355 | 20 | 270 | 1.6 | 17.7 | 0.05 | 3.53 | 2.87 | 90 | 1021.3 |